Flag for Germany Weather past 2 weeks in Jülich, North Rhine-Westphalia, Germany

Now
50 °F

Cool.


Feels Like: 47 °F
Forecast: 42 / 49 °F
Wind: 7 mph from Southwest

Location: Noervenich

Current Time: Mar 29, 2015 at 11:50:10 AM

Latest Report: Mar 29, 2015 at 10:00 AM


Visibility: 13 mi

Pressure: 29.70 "Hg

Humidity: 80%

Dew point: 44 °F

Location of JülichLocation

Historic Weather in Jülich — Graph

°F

Jülich temperature yesterday

Maximum temperature yesterday: 53 °F (at 11:00 PM)
Minimum temperature yesterday: 34 °F (at 5:00 AM)
Average temperature yesterday: 46 °F

Past Weeks' High & Low Weather Summary

 TemperatureHumidityPressure
High62 °F (Mar 17, 5:00 PM)97% (Mar 19, 9:00 AM)30.40 "Hg (Mar 19, 9:00 AM)
Low30 °F (Mar 23, 7:00 AM)39% (Mar 26, 2:00 PM)29.67 "Hg (Mar 25, 2:00 AM)
Average43 °F80%30.11 "Hg
* Reported Mar 14 9:00 AM — Mar 29 10:00 AM, Jülich, Weather by CustomWeather, © 2015

Note: Actual official high and low records may vary slightly from our data, if they occured in-between our weather recording intervals... More about our weather records

Advertising

Jülich weather history for previous 24 hours

 ConditionsComfort  
Time TempWeatherWind HumidityBarometerVisibility
10:00 AM
Sun, Mar 29
50 °FCool.7 mph80%29.70 "Hg13 mi
9:00 AM50 °FCool.7 mph77%29.71 "Hg8 mi
7:00 AM51 °FOvercast.7 mph73%29.74 "Hg16 mi
6:00 AM52 °FOvercast.7 mph73%29.75 "Hg16 mi
4:00 AM52 °FPassing clouds.7 mph78%29.76 "Hg12 mi
3:00 AM53 °FPassing clouds.8 mph77%29.76 "Hg12 mi
1:00 AMN/APassing clouds.12 mphN/AN/A2 mi
12:00 AM54 °FOvercast.3 mph81%29.82 "Hg12 mi
11:00 PM
Sat, Mar 28
53 °FOvercast.3 mph81%29.83 "Hg12 mi
9:00 PM51 °FOvercast.2 mph84%29.88 "Hg9 mi
8:00 PM51 °FCool.2 mph81%29.90 "Hg31 mi
6:00 PM51 °FCool.5 mph81%29.93 "Hg31 mi
5:00 PM50 °FCool.3 mph84%29.94 "Hg37 mi
3:00 PM48 °FCool.2 mph89%30.00 "Hg1 mi
2:00 PM49 °FCool.2 mph82%30.03 "Hg4 mi
12:00 PM53 °FOvercast.3 mph54%30.06 "Hg19 mi
11:00 AM53 °FOvercast.5 mph51%30.08 "Hg19 mi
Weather by CustomWeather, © 2015

See weather overviewHow to use our weather pages